ECMWFFLT1_sfc_temp_132.txt.gz
Temp
65 64 64 65 66 65 64 64 64 64 65 65 64 64 64 64 64 63 63 63 63 63 64 63 63 63 63 64 63 63 62 62 61 61 58 57 58 57 58 57 55 56 55 51 55 55 50 51 53 55 54 52 55 55 55 55 54 54 54 54 57 58 56
65 64 64 65 64 64 63 63 63 63 63 63 64 64 63 64 64 63 63 63 62 62 64 62 62 62 63 62 61 61 60 60 60 61 60 58 57 58 56 52 53 54 53 53 52 51 50 48 49 51 54 55 54 54 53 51 53 53 55 55 59 59 58
64 63 64 63 63 63 63 62 62 61 62 61 62 63 63 63 63 63 63 63 63 62 63 61 60 60 61 61 62 61 60 60 59 60 60 59 59 58 60 56 53 53 54 55 53 49 50 51 52 53 51 54 53 52 50 52 54 55 55 55 56 57 56
63 63 63 63 63 62 62 61 61 61 61 61 61 61 62 62 62 63 62 62 62 63 62 60 60 60 60 60 60 61 60 60 59 58 59 58 58 57 57 57 57 57 56 54 53 52 51 49 50 51 50 54 53 54 54 53 55 55 57 55 56 55 55
64 64 63 63 63 62 62 61 60 60 60 60 60 60 60 61 62 61 62 61 61 60 60 60 60 59 58 58 58 59 59 59 59 59 58 56 56 56 55 56 57 57 56 57 55 56 55 52 54 51 52 51 51 53 54 53 55 56 56 56 56 55 54
65 64 64 64 63 62 62 61 60 60 60 59 59 60 59 59 60 60 59 59 59 59 58 58 57 57 57 57 57 57 57 58 57 58 57 56 56 56 56 53 55 55 57 55 54 55 53 51 52 49 50 49 50 51 53 51 55 56 55 56 56 55 56
65 65 65 64 63 63 63 62 62 61 60 61 60 60 60 59 60 60 60 59 58 58 58 57 56 56 56 57 56 56 56 56 56 56 57 55 54 55 54 53 53 54 54 51 54 53 52 52 50 52 49 47 48 51 50 51 51 54 56 57 56 55 55
65 65 65 65 64 63 63 63 62 62 62 61 61 61 60 59 59 58 58 58 57 57 57 56 56 56 55 56 55 54 53 52 54 54 53 53 53 52 52 53 53 51 51 50 52 54 54 56 54 51 53 50 49 48 49 50 48 51 53 54 54 55 55
65 65 65 64 64 65 64 64 63 62 62 61 60 60 59 59 58 57 58 57 56 56 56 56 55 55 54 54 53 53 52 53 52 52 52 52 52 51 51 50 52 50 49 49 50 51 53 54 53 53 55 55 51 48 47 50 48 52 53 54 54 54 54
65 64 64 64 64 64 64 64 63 62 61 61 60 59 58 58 57 57 57 55 55 55 55 55 55 54 54 55 53 52 52 52 52 51 50 51 50 50 49 50 51 49 48 49 49 48 49 50 52 54 56 56 55 51 47 46 47 47 53 51 52 55 54
65 65 65 64 64 63 62 62 61 60 60 60 60 59 58 57 57 58 56 55 55 55 55 54 54 53 53 53 52 52 51 51 51 50 51 50 49 50 50 50 50 50 49 49 48 48 48 49 50 52 53 54 55 54 49 48 47 46 51 49 51 54 54
65 65 65 65 64 63 62 61 61 61 60 59 59 58 57 57 56 56 55 55 54 54 54 54 53 53 53 52 51 51 50 51 51 50 50 50 49 50 50 49 48 48 48 48 48 48 48 48 48 50 51 51 53 53 51 50 48 49 49 51 51 52 54
65 65 64 64 63 63 62 61 61 60 59 59 59 58 57 57 56 55 55 55 54 53 53 53 53 52 52 52 51 50 50 50 51 50 50 50 50 50 50 49 49 48 47 48 48 47 47 48 48 49 50 51 50 50 51 50 50 49 48 49 50 52 52
65 65 64 64 63 63 62 61 61 61 59 58 58 57 57 57 56 56 55 55 54 53 53 52 52 52 52 51 50 50 50 51 51 49 50 49 49 49 50 50 48 47 48 49 47 47 47 47 47 47 48 49 49 49 51 49 49 47 48 47 48 51 51
66 65 64 63 63 62 62 61 61 60 59 58 58 58 57 56 56 55 55 55 54 54 53 53 52 52 51 50 49 50 50 50 50 49 49 49 49 49 49 49 48 47 48 48 47 48 48 48 48 49 49 49 49 49 48 49 48 48 47 49 51 50 50
65 64 64 63 63 62 61 61 61 59 59 57 58 58 57 56 56 56 55 54 54 53 53 52 51 52 51 51 50 50 50 50 50 49 49 49 49 48 49 49 48 48 48 48 47 46 47 47 49 49 48 49 49 48 48 51 50 46 47 48 47 49 49
65 64 63 63 62 62 61 61 60 60 59 57 57 57 57 57 56 55 55 54 54 53 52 52 51 52 52 51 51 50 50 50 50 50 50 49 48 49 49 48 47 47 48 48 46 47 47 47 48 48 48 48 49 49 49 49 51 46 46 47 47 50 49
64 64 63 63 63 62 61 61 60 60 59 58 58 57 56 56 56 55 54 54 53 53 52 52 51 51 51 51 51 51 50 50 49 49 49 49 50 49 49 49 47 48 48 47 46 47 47 47 47 48 47 48 48 48 49 49 48 49 48 48 47 47 46
64 64 64 63 63 63 62 61 61 61 60 59 58 58 57 56 56 55 55 54 54 53 52 52 52 52 51 50 50 50 50 49 49 49 48 48 49 48 49 48 47 48 48 48 47 46 46 46 46 47 47 47 46 46 47 47 48 48 48 47 47 48 47
65 65 64 64 64 63 62 61 61 61 61 60 58 57 57 56 55 56 55 54 54 53 52 52 51 51 50 50 50 50 48 48 48 48 48 48 48 48 48 47 47 48 48 48 47 47 46 46 46 46 46 45 45 46 45 46 47 47 47 45 44 45 46
65 65 65 65 64 63 62 61 61 61 60 59 58 58 56 56 55 55 54 54 54 53 52 51 51 50 50 50 50 49 49 48 48 47 47 47 48 48 47 47 47 48 48 47 48 47 47 46 45 45 44 44 44 45 45 44 45 46 46 45 44 46 44
66 65 65 64 63 63 62 61 61 60 60 59 59 58 58 57 55 54 54 53 53 52 51 51 51 50 49 49 49 49 49 49 48 48 47 47 47 47 47 47 47 47 50 50 50 49 49 48 45 44 44 44 44 44 43 44 44 44 44 45 43 41 44
65 65 64 64 63 62 62 61 61 60 59 59 59 58 57 56 56 55 53 52 52 51 51 51 52 51 51 50 49 49 48 48 48 48 47 46 46 46 46 47 48 52 53 52 50 48 47 48 50 49 47 43 45 44 44 43 43 44 44 44 45 44 45
65 64 64 64 62 62 62 61 60 60 59 59 58 57 57 56 55 54 54 52 51 51 51 52 49 45 46 48 50 49 49 48 48 48 48 47 46 46 46 47 50 53 53 52 50 46 46 46 46 46 46 47 47 46 44 43 43 43 45 45 42 42 45
65 64 64 63 62 62 62 60 60 59 59 57 57 57 56 56 55 55 54 53 52 51 51 50 45 44 45 45 49 50 49 48 48 48 48 47 47 46 46 47 49 51 51 51 50 49 47 45 44 44 43 44 44 45 46 47 46 43 44 44 42 44 44
64 64 64 63 62 62 61 60 59 58 58 58 57 56 56 55 54 54 54 53 52 52 51 47 44 44 44 44 46 49 49 48 47 46 47 47 47 48 48 49 48 49 50 54 52 48 47 47 45 44 44 44 43 42 40 40 43 49 46 45 45 43 43
64 64 63 63 62 61 60 59 59 59 58 57 56 56 56 55 54 54 54 53 52 52 51 47 43 44 44 43 44 46 49 48 48 47 47 48 48 48 48 48 48 47 47 50 48 46 46 45 45 45 45 45 45 47 42 41 39 41 45 47 46 47 45
64 63 63 62 61 61 60 59 58 58 57 57 56 56 55 54 54 54 54 53 52 51 51 45 43 43 43 43 43 46 49 49 48 48 48 48 48 48 48 48 49 48 46 47 46 45 45 44 44 44 44 44 44 45 44 45 46 45 46 45 46 48 45
63 62 62 61 60 59 59 59 58 57 56 56 57 57 56 55 54 54 54 53 52 51 50 43 43 43 43 43 43 50 49 48 47 47 47 47 47 47 48 48 48 48 47 46 47 43 45 45 45 45 44 44 45 45 44 44 42 43 47 47 47 48 46
62 62 61 60 60 59 58 58 58 58 57 56 55 55 55 54 54 54 53 53 52 51 49 44 42 43 43 42 45 50 48 47 47 46 47 47 48 48 48 48 48 48 46 46 45 41 41 44 45 45 45 44 44 45 46 46 42 40 40 41 41 41 41
62 61 61 60 60 59 59 59 58 57 57 56 55 55 54 52 53 54 53 52 52 51 49 45 42 43 43 42 47 49 48 47 47 47 47 48 48 48 48 50 49 47 46 47 42 40 40 45 45 45 44 44 45 45 46 45 43 43 41 40 40 40 39
63 62 61 60 60 59 58 58 58 56 56 55 53 52 51 52 53 53 53 53 53 52 49 46 42 42 42 42 48 49 49 49 47 47 47 47 47 47 47 50 51 48 47 46 41 40 40 45 45 45 44 45 45 45 46 44 45 45 45 46 46 45 45
62 62 61 61 60 59 58 56 54 55 53 52 50 50 50 51 52 52 51 51 51 52 50 47 44 42 43 42 46 50 49 49 48 47 47 48 46 45 46 47 48 43 42 42 40 39 40 42 45 44 44 45 45 45 46 42 45 45 46 46 44 42 44
62 62 62 60 60 59 58 56 55 53 51 51 50 50 50 50 50 48 48 50 51 50 50 48 45 42 42 43 44 47 49 49 49 48 46 47 47 46 45 45 46 45 41 41 40 39 40 41 43 45 44 46 47 47 43 44 46 45 45 44 45 45 44
62 62 61 60 58 57 57 55 55 54 52 51 51 50 50 48 47 45 45 47 50 49 50 49 45 42 42 42 43 45 48 49 50 49 47 47 47 46 46 46 45 44 41 41 40 40 40 40 41 47 44 42 42 39 44 45 46 46 44 45 44 45 44
60 62 60 58 58 57 55 54 53 53 53 51 51 51 49 47 46 46 46 46 48 49 49 50 45 44 41 41 42 43 45 48 44 50 48 47 46 47 47 46 47 45 40 40 40 40 40 40 41 45 41 40 40 39 41 44 44 44 43 44 43 44 44
60 60 59 58 56 55 54 54 54 54 53 52 51 50 48 47 47 46 45 46 47 48 48 48 45 45 44 41 42 43 43 44 43 49 50 49 48 48 46 46 46 42 41 40 40 40 40 40 43 41 41 40 39 40 44 43 43 43 43 42 42 42 43

ECMWFFLT1_sfc_temp_135.txt.gz
Temp
73 73 73 73 74 74 73 72 71 70 72 73 72 73 74 74 75 74 74 75 75 75 73 73 73 73 74 74 72 71 71 71 71 71 68 67 65 66 68 67 67 69 70 69 70 68 67 61 61 66 69 68 68 68 70 71 71 70 68 69 72 71 70
74 74 74 74 73 73 71 71 70 70 70 72 73 72 73 75 74 75 75 75 74 74 74 74 73 73 72 71 70 69 70 70 71 71 69 68 68 69 66 66 68 68 68 68 69 69 67 65 65 63 63 65 65 67 67 68 70 69 70 70 72 72 69
73 74 74 73 72 71 70 69 69 69 69 70 71 72 72 75 75 75 74 74 73 74 73 74 73 72 71 71 70 70 70 69 70 70 70 70 70 71 70 68 66 65 67 67 66 67 66 68 66 66 65 63 60 64 65 66 68 70 70 69 69 71 69
72 72 71 70 71 69 69 69 68 68 69 69 70 71 71 74 74 74 74 74 74 73 73 73 72 72 72 72 71 70 69 69 69 69 69 70 70 70 70 70 69 68 67 66 66 67 68 65 65 66 67 69 68 62 64 67 68 70 70 69 69 69 68
72 71 71 70 70 69 70 69 69 69 68 70 70 71 71 73 73 73 73 73 73 72 73 73 73 73 71 70 70 70 70 70 70 69 69 69 68 69 69 70 71 71 71 71 72 70 68 68 67 67 67 68 67 69 68 65 69 69 69 69 70 68 68
72 72 72 71 72 70 71 70 69 68 69 69 70 71 71 71 73 72 71 71 72 72 73 73 72 71 66 66 69 70 71 70 70 69 69 69 69 69 69 70 71 72 71 73 72 70 70 70 69 66 68 68 64 64 66 67 65 68 69 68 69 69 69
72 72 73 73 72 72 73 72 71 72 71 71 71 72 73 72 73 72 72 72 72 72 72 72 71 69 67 69 69 70 71 71 70 69 70 70 69 69 70 69 69 70 71 71 70 70 69 67 67 66 63 63 64 64 64 66 67 63 64 68 69 69 68
73 73 73 74 72 72 73 72 72 73 73 73 73 73 72 71 71 72 72 71 71 71 71 70 69 68 69 70 71 70 70 70 69 69 69 69 68 68 68 69 69 69 70 70 69 70 71 70 69 68 65 60 59 62 61 66 65 66 65 66 68 68 68
73 73 73 74 73 73 73 73 72 73 73 73 73 72 71 72 71 71 71 71 70 70 70 70 69 70 68 69 69 68 68 66 67 67 68 68 67 67 67 67 68 69 68 68 69 69 71 71 71 69 68 66 62 58 60 60 61 64 66 64 65 67 67
72 72 73 72 72 73 73 73 73 73 73 73 72 71 70 71 71 71 70 70 69 69 69 69 69 69 68 69 69 67 67 66 67 67 67 67 67 66 67 65 67 68 66 66 66 67 68 68 70 70 71 68 68 64 58 58 59 61 62 66 63 64 67
73 73 73 73 73 72 72 73 73 72 72 72 71 70 70 70 69 69 70 69 68 68 68 69 69 69 68 68 68 68 68 66 66 66 65 66 66 65 65 65 66 66 65 65 66 64 65 66 67 68 69 71 70 66 64 61 60 63 62 63 66 64 65
74 74 74 74 73 72 72 72 72 72 72 71 71 70 69 70 69 69 69 69 68 68 68 67 67 67 68 67 66 66 65 65 66 65 64 64 64 64 64 64 64 65 63 63 63 64 64 65 66 68 68 69 68 68 66 65 61 61 65 60 63 67 66
75 74 74 74 73 73 73 73 72 71 70 71 71 70 70 70 69 69 69 69 68 68 67 67 67 67 67 67 66 66 64 64 65 65 64 63 63 64 64 64 64 64 63 64 64 64 64 64 65 67 67 67 66 66 66 66 64 60 61 63 63 64 66
73 74 74 74 73 73 73 72 72 72 71 70 70 69 70 70 70 69 69 68 69 67 66 66 66 66 67 66 65 65 64 65 65 65 64 61 62 63 65 65 64 63 63 64 64 64 64 64 64 65 66 66 66 65 65 64 63 58 58 61 62 62 62
73 74 72 72 72 74 74 72 72 71 70 70 71 71 71 70 70 69 69 68 68 68 67 67 66 66 66 65 63 63 63 64 65 64 63 63 62 63 64 65 64 62 63 64 63 65 66 65 66 66 65 66 66 65 66 65 64 61 56 58 60 63 62
72 72 71 71 71 73 73 72 72 71 70 69 70 71 70 70 69 69 69 68 68 68 68 67 65 66 65 65 64 62 63 64 64 62 62 63 64 63 63 63 62 61 61 62 62 63 62 64 66 66 64 65 65 64 64 64 62 60 58 57 60 61 61
71 71 70 70 71 72 73 73 72 71 71 70 69 69 70 70 69 68 68 68 68 67 66 65 65 66 66 66 65 64 64 63 64 64 64 64 64 63 64 63 61 61 62 62 61 62 63 63 63 64 63 62 62 62 61 61 61 58 58 57 59 63 62
69 69 69 69 71 72 72 72 71 72 71 69 70 69 69 69 68 68 67 68 68 67 66 66 65 65 65 65 66 64 64 64 63 64 64 64 62 64 63 63 62 62 63 62 61 62 62 61 64 63 63 62 62 59 58 57 57 58 59 60 58 61 62
69 69 69 69 70 71 71 71 71 71 72 69 68 68 67 67 69 69 69 69 68 68 67 66 66 66 66 64 64 64 64 63 63 64 63 63 64 64 63 64 62 63 63 62 61 61 61 61 61 61 61 61 60 58 58 58 60 62 63 62 60 58 59
68 69 68 68 70 70 70 70 71 71 70 69 68 67 66 66 66 69 69 68 68 67 67 66 66 65 65 65 64 64 62 62 62 62 63 63 63 63 64 63 62 62 63 63 61 61 61 60 61 60 60 59 60 60 60 61 62 62 61 60 60 61 60
69 69 69 68 69 68 68 68 69 71 70 68 67 67 66 66 66 68 68 68 68 67 66 65 66 65 65 64 63 63 62 61 62 61 61 62 62 62 62 62 62 63 63 64 63 62 62 61 60 59 58 59 59 60 60 60 61 61 60 60 60 59 60
69 68 68 68 68 67 67 68 69 69 69 68 67 68 67 67 66 66 67 66 66 66 65 64 65 64 63 63 63 62 62 62 61 61 61 61 61 61 62 62 62 62 62 60 57 57 58 57 60 58 58 60 60 60 60 61 61 61 60 60 59 59 59
69 68 68 68 68 68 67 66 66 67 67 68 67 67 67 66 66 65 64 64 64 63 63 63 59 55 56 63 63 63 61 61 62 61 60 60 59 60 61 61 60 57 55 54 52 50 48 51 55 61 61 60 60 60 60 59 60 61 60 59 59 58 57
68 67 68 68 67 67 66 66 66 67 67 67 66 65 65 65 65 64 63 62 61 61 62 62 50 47 48 51 61 62 61 61 61 61 61 60 59 59 60 61 61 57 56 54 53 47 47 46 47 49 50 53 57 61 60 59 59 60 59 60 59 58 58
67 67 67 67 67 66 66 65 66 67 65 65 65 65 63 63 64 63 63 63 61 61 62 54 45 45 46 47 53 62 62 61 60 61 61 61 61 60 60 59 60 59 60 60 59 55 51 46 44 44 44 45 46 49 52 59 60 58 59 59 58 58 59
67 67 67 67 67 66 66 65 65 64 64 64 65 62 61 62 63 63 63 63 62 62 63 48 44 44 45 45 47 56 63 62 61 61 61 61 61 61 60 59 59 60 60 55 58 60 58 54 46 43 44 44 44 45 45 42 45 58 62 59 59 58 59
66 67 67 66 66 65 65 65 65 65 64 63 63 62 62 62 63 63 63 64 63 63 64 48 44 44 44 44 44 51 63 61 61 61 61 61 61 61 60 60 60 59 59 59 59 58 59 59 57 54 53 55 56 51 43 40 41 40 52 61 60 59 60
66 66 67 66 65 64 64 65 65 64 64 64 63 61 61 62 63 63 63 64 64 62 62 45 43 43 43 43 43 49 62 60 61 61 60 61 61 61 61 61 60 59 58 58 58 58 59 59 58 56 56 56 58 57 57 57 57 59 58 60 62 62 61
66 66 66 65 64 64 64 65 65 65 65 64 63 62 62 63 62 61 62 63 63 61 59 42 43 43 43 43 43 58 61 60 60 60 60 60 61 62 61 60 58 55 57 58 53 45 52 59 58 57 57 57 57 58 59 56 48 50 57 61 62 62 63
66 65 65 64 64 64 64 65 65 64 62 62 61 60 60 61 63 63 62 62 62 61 58 45 42 43 43 42 48 61 60 60 60 59 59 60 60 60 60 59 57 58 58 60 49 41 44 50 58 57 57 56 57 58 58 57 41 37 38 39 40 41 41
66 65 65 64 64 65 66 67 65 63 63 62 60 59 60 62 63 64 61 60 60 58 56 47 42 43 42 42 51 59 60 59 59 59 59 59 60 59 59 54 58 60 58 58 43 41 41 50 58 57 57 55 55 56 58 59 57 53 40 39 39 40 40
67 66 65 65 65 65 66 66 66 64 63 63 62 63 61 62 62 61 60 59 56 58 57 49 42 42 42 42 52 60 60 60 58 58 58 57 58 59 59 55 53 56 58 54 40 41 40 50 58 57 57 56 55 56 58 59 57 58 57 56 55 52 50
65 65 65 65 65 67 67 65 64 63 61 60 61 64 63 63 61 59 59 60 59 60 58 52 46 42 42 43 48 60 60 58 56 56 58 58 57 58 57 57 53 44 45 43 40 40 40 43 56 58 58 56 56 55 60 59 59 60 60 59 60 58 59
64 64 65 64 64 64 65 65 64 62 60 60 60 61 61 61 60 59 60 60 60 60 58 53 48 41 42 43 45 51 58 56 56 55 57 57 58 57 56 56 58 47 42 41 40 40 40 41 46 57 57 57 58 58 56 59 56 51 58 59 59 58 59
66 64 63 61 60 60 63 65 63 61 62 60 57 57 58 59 59 58 58 57 58 57 55 51 51 42 42 43 44 47 52 52 54 54 55 57 57 56 56 56 59 50 41 41 40 40 40 41 41 55 57 49 47 43 57 60 60 58 58 59 59 58 59
64 63 62 62 61 60 61 62 62 62 60 59 56 54 54 56 57 56 55 54 53 52 52 50 45 45 42 42 42 44 45 49 44 56 57 57 57 57 58 58 57 46 40 40 40 39 40 40 42 51 45 43 42 40 48 60 60 59 58 58 57 56 57
65 63 62 62 61 61 60 60 59 60 60 59 57 55 55 55 56 55 53 51 51 51 51 50 45 44 44 41 42 43 42 45 45 56 59 60 60 60 59 58 55 43 41 40 40 39 39 40 46 44 42 41 40 41 56 57 56 57 55 55 54 55 56

ECMWFFLT1_sfc_temp_138.txt.gz
Temp
79 79 79 79 80 81 80 80 80 80 81 82 81 82 82 82 81 80 80 79 79 79 78 78 77 79 80 81 79 79 79 79 76 73 70 70 69 71 75 74 74 75 76 75 75 72 72 68 67 74 77 76 75 75 76 78 78 76 74 74 78 77 75
80 80 81 80 80 80 79 79 78 79 80 81 82 80 81 82 81 80 80 79 78 78 79 79 78 79 79 78 78 77 77 76 75 71 71 72 73 73 72 72 74 74 75 75 74 74 70 70 72 68 69 73 73 73 73 76 78 76 76 74 77 78 75
78 80 82 79 78 78 77 77 77 77 77 78 79 80 80 82 81 81 80 79 78 78 78 80 79 79 78 78 78 77 76 74 70 67 69 73 75 75 75 74 72 72 73 73 73 72 73 73 69 74 71 69 65 69 71 72 75 76 77 75 75 78 77
78 78 79 77 77 77 76 76 76 76 76 77 78 78 79 80 80 80 79 79 79 78 78 79 78 79 78 78 78 77 76 74 73 71 70 73 74 75 75 75 73 74 72 71 72 73 72 71 72 71 75 74 72 69 70 73 74 77 77 76 75 76 76
79 78 78 77 77 77 76 76 76 76 76 77 76 76 76 79 79 78 79 78 78 78 78 80 80 80 79 79 78 77 76 75 74 73 73 73 74 75 74 75 75 75 75 75 75 75 73 72 72 73 75 78 76 76 75 72 75 76 76 77 77 77 75
79 79 80 80 79 78 78 77 76 75 76 75 76 75 76 77 79 78 78 77 78 77 78 79 78 79 78 77 77 76 76 75 74 74 73 73 74 73 74 75 76 76 75 76 76 75 75 74 73 72 77 79 71 74 75 73 71 76 77 76 77 78 77
79 79 80 81 81 80 80 79 78 78 77 76 76 76 78 78 78 79 78 78 78 78 78 78 78 79 77 78 77 75 75 75 75 74 74 74 74 75 75 74 75 75 75 76 76 76 74 73 73 73 72 73 73 73 74 73 75 71 73 76 78 78 77
80 80 80 81 82 81 81 80 80 80 80 79 79 79 79 77 77 78 78 77 78 78 78 78 78 78 77 77 77 76 76 76 75 74 74 75 75 75 74 74 74 75 75 76 76 76 76 75 74 74 72 68 67 70 70 74 74 72 72 75 77 77 76
81 81 80 81 81 81 81 80 80 80 80 80 81 80 79 78 77 78 78 78 78 78 78 78 78 78 77 76 76 75 74 76 75 74 75 75 73 74 74 74 74 75 76 76 76 76 77 77 77 76 74 71 68 65 67 67 70 71 76 72 74 76 76
80 80 80 80 79 79 80 80 80 79 80 80 80 80 79 79 79 79 78 77 77 78 78 78 78 78 76 75 75 75 75 76 76 76 75 74 73 74 74 74 74 75 75 76 76 76 76 76 77 76 76 73 72 69 66 65 66 68 73 74 70 73 75
81 81 81 80 79 78 79 80 81 80 80 81 81 81 81 79 79 78 78 78 78 78 78 79 79 79 76 75 76 76 76 76 75 76 75 75 74 74 74 75 75 75 76 76 75 75 75 75 75 75 75 76 75 71 70 67 68 70 71 72 74 72 72
81 81 81 81 79 79 79 80 81 81 80 80 80 79 79 80 78 78 78 78 78 77 78 77 78 78 76 76 75 76 77 76 75 75 75 75 75 74 74 73 74 74 76 73 74 74 74 74 74 75 75 75 75 73 71 71 67 71 74 68 72 76 71
83 83 82 81 79 78 81 81 82 80 80 81 80 79 80 79 78 78 78 78 78 78 78 77 77 77 75 76 76 75 76 75 75 75 76 75 74 74 74 73 73 74 74 73 73 73 73 73 74 75 75 74 74 73 72 70 68 67 70 71 71 72 71
81 83 82 81 79 79 80 81 82 81 82 80 80 79 79 80 80 79 80 79 79 77 77 75 76 76 74 74 75 75 76 74 74 74 74 72 73 72 73 73 74 73 74 72 73 73 73 74 74 73 74 75 73 73 71 70 68 67 65 70 69 67 67
81 81 80 80 78 79 80 80 81 82 80 80 81 81 81 80 80 80 80 80 79 79 78 77 76 76 74 74 73 74 73 74 74 74 72 72 72 73 72 73 74 73 73 73 73 74 75 74 74 74 74 73 73 72 72 71 70 68 62 63 67 70 67
82 81 80 79 78 79 79 80 81 80 81 80 80 81 81 80 80 80 80 80 80 79 79 78 75 75 74 74 74 72 73 73 72 72 71 71 73 72 71 71 73 72 71 71 71 72 73 72 75 74 73 73 72 72 73 72 71 67 64 63 66 67 67
80 81 79 79 78 78 79 80 80 80 82 80 80 80 81 81 80 79 79 79 80 79 78 77 75 76 75 75 74 73 73 72 73 72 72 73 73 72 72 71 71 70 70 70 70 71 71 71 71 72 72 72 71 70 71 71 71 68 66 64 65 69 69
79 79 79 79 78 78 79 79 79 80 81 80 80 80 80 81 80 79 77 78 80 79 77 76 75 75 75 74 75 74 73 73 72 72 72 72 71 72 71 71 71 71 70 69 69 69 70 69 72 71 71 72 72 71 70 69 68 68 67 65 65 69 70
78 79 79 78 77 77 78 78 78 79 81 80 80 79 79 80 80 80 80 79 80 79 78 77 76 75 75 74 74 74 73 73 72 73 73 72 73 72 71 72 71 71 70 69 68 69 69 68 70 70 70 71 72 69 67 66 67 68 68 68 67 66 67
78 78 78 77 77 77 78 78 78 79 81 80 79 79 79 79 78 80 80 79 79 79 79 78 76 75 75 75 74 74 72 72 71 71 72 73 73 72 72 72 71 71 70 70 69 68 68 68 68 69 69 68 69 67 65 66 69 68 67 67 67 67 66
77 77 78 77 76 76 77 77 77 79 80 79 79 80 80 78 78 79 79 79 79 79 78 77 76 75 75 75 73 73 72 70 71 70 70 72 71 72 71 72 71 71 71 71 70 69 69 68 69 68 68 68 67 66 66 68 67 67 66 67 67 66 67
77 77 77 76 76 75 75 76 76 77 78 78 78 80 81 78 77 77 78 76 77 77 76 75 76 74 73 74 74 72 71 71 70 70 70 70 71 71 71 71 71 71 71 67 63 65 64 65 69 66 66 66 66 66 67 68 66 67 67 67 66 67 66
75 76 76 75 74 74 75 75 75 76 77 77 78 79 81 78 77 75 74 74 74 73 74 74 68 60 63 73 73 72 71 70 71 70 69 69 69 69 70 70 70 65 61 59 56 52 51 56 59 66 67 67 66 67 66 66 66 67 67 66 66 66 64
74 74 75 74 74 73 74 74 74 75 75 76 75 76 78 77 75 74 74 73 73 72 72 73 54 51 52 56 69 71 70 70 70 70 69 68 67 68 69 70 69 62 61 58 58 48 49 50 50 52 54 55 59 66 67 64 66 67 67 66 67 65 65
74 74 74 74 73 74 74 74 75 76 75 73 74 76 75 76 74 73 73 74 73 72 73 58 48 49 49 50 58 71 70 69 69 69 69 69 68 68 68 68 68 66 66 66 66 61 54 47 46 46 47 50 51 46 46 59 65 66 66 66 65 65 65
73 73 73 73 73 73 73 74 75 75 74 74 74 74 74 74 72 72 71 73 72 71 73 50 48 47 48 49 50 61 71 70 69 69 69 69 69 69 68 67 67 66 67 60 63 66 64 58 47 43 46 46 45 47 46 43 44 59 68 66 65 65 66
72 73 73 72 72 72 72 73 74 75 74 73 73 73 72 71 71 70 70 71 70 70 70 49 47 46 47 47 47 53 72 69 69 69 69 69 69 68 68 67 66 65 66 64 66 66 65 63 61 60 60 61 63 55 45 42 45 41 52 65 66 65 66
72 72 72 71 71 72 72 73 73 73 72 71 71 71 71 71 70 70 70 70 70 69 68 46 46 45 46 46 46 51 71 69 69 69 68 69 69 68 68 67 67 66 65 64 66 65 65 64 63 62 62 62 64 63 62 63 62 64 64 65 67 67 67
72 71 70 70 70 71 72 72 73 73 73 73 72 72 71 71 69 69 68 67 68 68 65 43 45 44 44 45 45 63 69 68 68 68 68 69 68 69 69 68 68 67 66 66 58 50 57 65 64 63 62 63 64 64 64 60 53 54 58 64 67 66 66
71 69 69 68 69 70 71 71 72 73 72 72 72 72 71 70 69 67 66 66 67 68 64 47 44 44 44 43 50 66 68 68 68 67 67 68 68 69 68 69 69 68 66 67 52 46 48 55 64 63 63 62 63 64 64 61 42 37 38 41 38 40 40
70 68 69 68 69 70 71 71 72 73 72 71 71 71 71 70 68 67 66 66 68 68 65 50 43 43 43 43 54 66 68 68 67 67 66 67 68 69 68 60 64 68 66 65 46 45 45 56 64 63 63 62 62 62 63 63 61 56 37 37 37 37 40
71 69 69 69 70 69 68 70 73 73 72 72 71 73 72 69 67 66 67 68 62 67 67 54 42 43 43 43 54 66 68 69 66 66 66 66 67 68 68 61 57 61 65 57 42 45 44 54 63 64 63 63 61 61 63 64 62 61 60 61 60 58 55
71 71 70 70 69 69 70 71 73 72 72 72 72 73 72 71 67 67 67 67 66 68 68 59 49 42 43 43 49 66 69 68 66 65 67 67 66 67 67 65 59 48 47 41 42 42 43 47 61 64 64 63 62 61 65 65 64 64 63 62 63 63 62
71 71 71 69 69 69 70 72 73 73 71 71 71 71 70 70 69 69 67 66 67 68 66 59 50 41 43 44 46 53 69 68 68 67 67 66 66 65 65 65 66 50 41 42 42 41 42 43 48 63 63 64 64 63 61 65 62 57 64 64 63 63 64
71 70 71 71 70 69 71 74 74 74 73 71 70 70 70 69 68 67 65 63 63 64 62 55 53 42 42 43 46 46 65 68 68 68 66 66 66 65 64 64 66 52 41 41 42 41 41 43 42 60 63 52 44 47 63 65 65 63 64 64 64 64 64
70 71 71 72 72 71 71 72 72 73 73 71 68 66 65 65 64 66 65 63 63 63 62 56 48 47 42 43 44 45 47 60 50 66 65 62 63 62 64 65 63 46 42 40 41 40 41 41 43 56 49 44 42 45 53 65 65 64 63 64 63 63 63
73 73 73 72 72 72 72 72 72 72 72 71 67 64 64 62 62 62 61 62 63 61 59 57 47 46 45 42 43 45 44 47 48 62 61 59 60 62 63 63 60 42 42 41 40 40 41 41 53 46 43 42 40 45 61 62 64 63 62 62 61 62 62

ECMWFFLT1_sfc_temp_141.txt.gz
Temp
79 78 79 80 82 83 82 81 82 82 84 85 83 85 85 84 83 82 81 80 81 80 78 77 74 74 78 80 79 80 77 77 76 75 75 72 70 70 74 74 74 76 76 76 76 72 71 68 68 76 78 78 77 77 79 79 80 79 76 76 79 78 76
81 81 81 83 82 81 81 81 81 82 82 83 84 84 84 84 83 82 82 81 80 80 79 77 75 73 75 77 78 77 77 78 77 77 76 70 73 73 72 72 74 72 76 76 76 75 71 69 70 69 71 76 75 76 75 78 80 79 78 76 78 79 77
80 82 82 81 80 80 79 79 80 81 81 81 82 83 82 84 83 82 81 81 80 80 78 80 76 74 73 77 78 78 78 77 76 76 75 76 76 75 75 74 71 73 74 74 74 75 72 73 69 72 71 71 67 72 74 74 77 79 79 77 75 78 79
80 81 80 78 80 79 79 79 80 80 81 81 81 81 82 83 82 82 81 81 80 79 77 74 75 71 70 72 73 77 77 76 77 75 75 76 76 75 75 75 74 74 72 71 72 74 73 70 71 73 75 76 72 70 72 75 76 79 79 78 76 76 78
81 82 80 79 79 79 79 79 79 80 79 80 80 80 80 81 81 81 80 81 78 78 76 75 72 73 72 72 71 76 77 78 76 75 75 74 74 75 74 75 74 76 75 75 76 75 73 73 72 73 75 78 76 77 79 73 77 78 78 78 79 78 77
82 82 82 81 81 79 79 79 78 78 79 79 79 79 79 80 81 79 79 78 79 78 76 75 75 74 71 70 73 76 77 77 76 75 75 74 74 73 74 75 76 77 76 78 77 76 76 75 74 71 75 80 74 78 80 74 72 77 79 78 80 79 79
82 82 82 82 82 81 81 79 79 79 79 78 79 78 81 81 81 79 79 79 79 78 76 75 75 74 72 71 75 77 76 75 77 75 75 75 75 75 75 75 75 76 77 77 77 77 75 74 72 72 72 74 77 76 80 73 75 72 75 79 80 80 80
83 82 83 83 82 82 81 80 80 80 79 79 80 80 82 81 80 80 79 79 79 78 75 73 73 72 72 72 76 76 77 78 76 76 75 75 74 75 75 75 75 76 77 77 77 77 78 76 74 74 72 70 72 72 73 76 75 74 74 77 80 79 79
83 83 83 83 83 82 82 82 80 80 80 81 81 81 81 81 80 79 79 79 78 77 74 75 73 73 74 74 76 77 76 77 76 75 75 75 73 74 74 75 75 76 77 77 77 77 77 77 76 76 74 72 70 68 70 69 72 74 78 75 78 80 79
82 82 83 83 82 81 82 82 82 81 81 82 82 82 81 81 81 79 79 79 78 75 75 75 76 77 76 76 75 75 74 75 75 75 75 75 75 74 74 75 74 75 77 77 77 78 77 77 77 76 79 78 74 70 69 67 68 70 75 77 73 76 79
83 83 84 84 84 82 81 82 82 82 82 82 83 82 82 81 80 79 79 78 77 75 75 76 78 78 76 75 75 76 78 77 75 74 75 75 74 75 76 76 76 76 76 76 76 76 76 75 75 77 78 77 76 72 70 68 69 73 73 76 77 75 77
83 83 83 84 83 83 83 82 82 82 82 82 82 81 81 82 80 79 79 78 77 76 76 76 78 78 78 76 77 77 77 77 75 74 75 76 76 75 75 74 75 74 75 75 75 75 75 76 76 80 78 77 76 74 72 71 68 73 76 72 74 79 76
85 84 83 83 82 84 85 84 83 81 81 82 82 82 82 82 80 80 79 79 78 78 78 78 78 78 76 77 77 76 77 77 76 75 75 77 76 76 75 74 75 75 75 76 75 76 76 76 78 77 76 75 75 74 73 71 69 70 74 74 73 77 77
83 84 83 83 82 83 82 83 83 82 83 81 83 83 82 82 82 81 81 80 81 78 77 78 78 78 78 77 77 77 77 77 76 76 76 76 76 75 75 75 75 75 76 75 76 76 77 78 76 74 75 76 74 74 73 71 69 69 69 74 73 73 73
83 83 82 82 82 83 83 82 82 82 81 83 84 84 83 82 82 82 82 81 80 80 79 80 79 79 78 76 76 77 77 77 76 76 76 77 76 76 75 76 77 77 77 79 78 77 76 75 76 75 75 75 75 74 74 72 71 70 65 69 70 73 69
83 82 82 82 82 83 82 82 83 82 82 82 83 85 83 82 82 83 82 82 82 81 80 80 78 78 77 77 76 75 75 76 75 74 75 76 78 78 76 76 76 78 79 77 74 74 75 74 77 75 75 75 74 74 75 74 71 69 68 66 69 69 68
82 82 81 82 82 83 82 82 83 83 83 82 83 83 84 84 83 83 82 82 82 81 79 78 78 78 78 77 77 76 76 75 76 75 76 77 78 78 76 74 74 76 76 72 73 73 74 74 74 75 75 74 73 74 74 73 73 71 71 65 67 70 70
81 82 81 81 81 82 82 82 82 83 83 82 84 83 84 84 83 83 81 82 81 81 80 79 78 77 77 77 77 76 76 76 75 75 76 77 76 78 77 74 74 75 73 71 71 72 73 72 74 74 74 75 74 74 74 72 72 72 70 66 67 70 72
80 81 81 81 81 81 81 81 82 82 84 83 82 83 83 84 84 85 84 83 83 82 81 80 79 78 78 77 77 76 75 75 76 76 76 77 77 77 75 74 74 75 72 71 71 71 72 71 72 72 73 73 74 73 71 71 71 71 70 69 69 67 68
80 80 81 81 81 81 81 81 82 83 83 82 82 82 83 83 83 85 84 83 82 83 81 80 78 77 77 77 77 77 75 76 76 76 77 77 77 76 75 75 74 74 72 72 71 71 71 70 70 71 71 71 74 72 69 70 70 69 68 68 69 67 66
81 81 82 82 81 81 81 81 82 83 82 81 82 83 83 83 83 84 84 83 83 83 81 80 79 78 78 77 77 76 76 75 75 76 75 77 75 75 75 75 75 74 73 73 72 72 71 69 70 70 71 72 72 69 68 68 69 69 68 68 68 66 67
82 82 82 82 81 80 80 81 82 82 81 81 81 83 83 83 83 83 84 83 83 83 81 79 79 78 76 77 77 76 76 76 75 75 76 74 74 74 75 74 75 75 73 70 66 67 67 67 70 69 70 70 69 67 68 68 68 68 68 67 67 67 67
83 82 82 81 81 80 80 80 80 80 80 81 82 82 82 82 83 82 82 83 82 80 80 79 72 65 66 76 76 76 75 74 75 75 73 72 73 73 73 74 74 70 66 63 60 57 56 58 59 68 71 69 68 67 68 68 68 68 68 66 66 67 65
83 82 82 81 80 80 80 79 78 79 80 80 80 81 81 82 82 82 82 82 81 80 78 78 59 55 56 60 73 75 75 74 74 74 73 71 71 72 72 74 73 65 63 61 59 50 51 51 50 50 52 54 59 67 69 67 67 68 68 67 67 67 66
83 82 81 81 81 80 80 78 77 78 78 79 79 80 79 81 81 81 80 82 80 79 79 60 51 53 54 54 61 75 74 74 73 74 73 72 72 71 71 71 72 69 69 68 68 63 56 49 47 48 49 49 45 42 46 61 67 67 67 67 67 67 67
83 82 81 81 80 79 79 77 76 76 77 78 78 78 79 79 80 80 79 79 80 80 79 51 52 51 52 52 53 65 76 74 73 73 72 72 72 71 71 70 70 68 70 63 66 67 66 60 50 46 47 47 49 48 44 41 44 58 67 68 67 67 67
82 81 81 80 80 78 77 75 74 75 76 76 76 76 77 77 79 78 77 78 78 80 79 52 50 50 51 51 50 58 76 74 73 73 72 72 71 71 70 70 69 67 68 67 67 66 66 64 62 61 62 64 65 57 48 46 48 45 53 66 68 67 68
82 80 80 80 78 77 76 74 74 74 75 75 75 75 75 76 77 77 76 76 77 76 74 50 50 49 49 50 49 55 74 73 73 73 72 72 71 71 71 70 70 68 68 66 67 65 65 64 63 63 63 63 65 65 64 65 64 65 66 67 69 69 69
82 81 79 79 77 76 75 74 73 73 74 75 76 76 75 75 75 76 76 75 75 76 68 46 48 48 48 49 49 67 72 72 72 72 72 72 72 72 71 70 70 68 68 66 60 53 58 65 64 63 63 64 65 65 65 63 56 53 59 65 67 65 63
81 81 80 78 76 75 74 73 73 74 73 74 74 74 74 74 75 75 75 74 74 75 66 50 46 47 47 46 53 68 70 71 71 70 71 71 71 71 71 71 70 69 68 68 55 48 50 57 64 64 63 63 64 65 64 61 43 40 41 41 40 40 41
79 79 79 78 77 74 73 73 73 74 74 73 72 73 74 74 74 75 74 74 75 73 67 53 45 46 46 46 57 67 69 70 70 71 71 71 71 71 71 63 67 70 68 67 48 47 47 59 65 64 64 63 63 62 64 64 62 55 37 37 37 39 40
79 78 78 78 76 73 72 73 73 73 74 75 73 73 73 73 73 73 74 74 64 71 69 54 44 46 46 46 58 67 67 70 69 70 71 70 70 70 70 65 61 64 68 58 45 47 47 57 66 65 65 64 62 62 63 64 61 60 60 60 59 57 55
79 77 77 76 74 73 73 73 73 72 74 75 74 73 73 73 72 72 73 72 71 73 68 59 50 44 46 46 52 66 68 69 68 69 70 69 68 69 70 69 62 49 46 44 46 45 46 49 64 66 65 64 62 61 66 65 64 63 61 61 62 62 61
79 78 77 74 74 74 74 73 73 72 72 73 74 73 72 72 72 72 72 72 72 73 69 60 51 44 45 46 49 56 68 68 70 70 68 68 68 68 69 68 69 46 43 44 45 45 45 46 50 62 63 64 64 63 62 66 63 59 63 61 61 62 62
79 76 76 74 73 72 73 74 73 73 72 72 72 72 72 72 71 70 71 71 72 72 66 56 54 44 44 46 48 51 64 66 68 68 67 68 68 68 69 68 67 48 42 43 44 44 44 45 45 58 61 48 45 50 65 67 65 63 64 63 63 63 63
76 76 74 74 73 72 72 72 72 72 71 71 70 71 71 71 70 69 69 70 71 71 68 58 49 49 44 45 46 49 52 60 52 65 67 67 67 68 69 69 57 43 42 42 43 43 43 44 45 55 41 42 46 45 55 66 66 63 63 64 63 63 63
75 75 74 73 72 71 70 71 71 71 71 70 70 70 71 70 69 69 68 69 69 69 65 63 49 47 46 44 45 47 46 49 51 63 66 67 68 69 69 64 54 42 41 41 41 41 42 43 52 47 41 41 42 50 63 63 63 63 61 62 62 63 63

ECMWFFLT1_sfc_temp_144.txt.gz
Temp
75 75 76 76 77 77 76 76 76 76 79 80 79 80 80 80 78 77 77 76 76 76 75 74 72 72 70 70 69 69 68 67 66 65 66 67 65 65 70 70 69 70 71 70 69 65 62 58 60 68 71 71 70 69 71 72 73 70 67 67 70 69 66
77 77 77 77 77 77 75 75 76 77 77 78 80 79 79 81 79 78 78 77 76 76 76 75 73 73 70 69 68 67 66 66 66 66 65 65 68 67 68 68 69 68 69 69 69 69 64 61 61 62 64 67 67 67 68 69 71 69 69 69 70 70 67
77 77 77 76 76 75 75 74 75 75 76 76 77 79 78 80 79 78 78 77 76 76 75 76 74 71 70 69 68 68 67 67 67 66 65 67 69 69 69 68 67 67 67 67 67 66 66 67 62 64 64 64 61 63 66 66 69 70 71 69 68 70 68
77 76 75 75 75 74 74 74 74 75 76 76 76 76 77 79 78 78 77 77 77 76 76 75 72 70 69 69 69 69 69 68 68 67 67 67 68 69 70 69 68 67 65 65 65 67 66 64 63 64 66 69 66 63 64 69 69 71 71 69 69 68 67
77 76 75 74 75 75 74 73 74 74 75 75 75 75 76 78 77 76 77 77 76 75 75 74 72 71 70 70 70 70 70 71 71 69 68 67 68 68 69 69 69 69 68 68 70 68 68 65 65 64 65 70 69 69 70 66 71 70 71 71 71 69 69
78 77 77 76 75 74 74 74 74 74 75 74 75 75 76 76 76 75 76 75 74 75 75 74 72 72 71 70 69 69 69 70 69 71 69 69 69 67 69 70 70 71 70 71 71 69 69 68 67 63 67 71 65 66 69 68 65 70 71 71 71 71 71
77 78 77 77 76 76 75 75 75 75 75 74 75 75 76 78 77 76 76 76 75 75 75 74 73 73 71 70 69 68 68 68 69 71 70 71 71 71 71 69 70 70 69 71 70 71 69 67 65 64 64 64 65 63 65 65 68 65 66 71 72 72 71
78 78 78 77 77 77 76 76 76 76 75 75 76 76 77 77 76 77 76 76 75 74 74 73 73 72 71 69 68 68 67 68 69 70 70 70 71 71 70 70 70 70 69 70 71 70 70 69 68 67 65 61 62 63 60 67 67 67 66 69 73 72 71
78 79 78 78 77 77 77 77 76 76 76 76 77 77 77 77 77 77 76 76 75 74 74 73 72 72 70 69 68 68 67 69 69 70 70 69 69 70 70 70 70 70 71 71 71 69 69 70 70 69 68 64 60 58 61 60 63 65 72 67 70 72 72
78 78 78 78 78 78 77 77 77 77 77 76 76 77 76 77 77 76 76 76 75 74 73 73 73 72 71 69 69 68 67 68 69 70 69 69 70 71 70 70 70 69 69 71 71 71 70 70 70 68 68 65 65 60 58 57 59 60 69 71 65 68 72
79 79 79 80 79 78 77 77 77 76 76 77 78 77 77 77 77 77 76 76 75 75 73 73 73 73 72 70 70 70 70 69 68 68 68 70 70 70 70 70 70 69 70 70 69 70 70 69 68 69 67 67 67 62 61 59 59 63 63 68 70 66 69
80 80 80 80 79 79 78 78 77 77 77 77 77 76 76 77 76 76 76 76 75 74 73 73 74 73 73 71 71 71 71 70 69 68 69 70 71 71 70 70 70 69 70 70 70 70 70 69 68 68 67 67 68 65 64 63 59 62 68 63 66 72 70
80 80 80 79 79 79 80 79 78 77 77 77 77 78 77 77 76 76 76 76 76 74 74 73 74 74 73 72 72 71 72 71 71 70 70 71 71 70 70 70 70 70 69 69 69 69 68 69 68 68 68 68 66 67 67 64 61 60 63 64 64 69 71
79 80 80 80 79 80 79 79 79 79 78 77 78 78 77 78 78 77 77 76 77 74 73 73 73 73 73 72 72 72 72 73 72 71 70 70 71 71 70 71 71 71 71 69 68 69 69 69 69 68 68 67 66 67 66 62 60 60 61 63 63 63 65
80 80 79 79 79 80 80 79 79 79 78 78 79 79 78 78 78 78 77 77 77 76 75 74 74 74 73 72 72 72 72 73 73 72 71 71 72 73 71 70 72 71 71 70 69 70 70 70 70 70 69 67 66 65 64 64 61 60 57 62 62 64 62
80 79 79 79 79 80 80 80 80 79 79 79 79 80 79 79 78 78 78 77 77 76 75 75 74 74 73 73 73 72 72 73 72 71 71 71 72 72 70 69 70 70 70 69 69 70 71 70 72 71 67 66 64 65 66 66 62 60 59 59 61 60 59
79 79 79 79 79 79 80 80 81 80 80 79 79 78 79 80 79 78 78 77 77 76 76 75 75 75 74 74 73 73 72 72 72 72 72 72 73 72 71 69 69 70 69 68 68 69 68 67 66 66 66 65 65 65 65 64 65 61 59 58 59 62 60
78 78 78 78 78 79 79 80 80 81 80 79 80 79 80 80 79 79 77 78 78 77 76 76 75 74 74 74 74 73 73 73 72 72 72 72 72 72 71 70 71 70 67 67 68 67 67 65 67 65 65 66 66 66 66 65 64 63 60 59 59 62 61
78 78 78 78 78 79 79 80 80 80 82 80 79 80 80 80 80 80 79 79 79 78 78 77 76 75 75 74 74 73 73 73 72 73 72 72 72 72 71 71 70 69 69 67 66 66 65 65 65 65 64 65 66 64 63 62 63 61 61 60 59 59 59
78 78 78 78 79 80 80 79 80 80 80 80 79 79 80 80 79 80 80 80 79 78 78 78 76 75 75 75 74 73 72 72 72 72 72 72 72 72 71 71 69 69 69 69 66 65 64 64 65 64 64 62 64 63 62 61 62 60 60 60 60 59 58
79 79 79 79 79 79 80 80 80 80 79 79 80 80 80 80 79 79 80 80 80 79 78 77 76 76 75 75 73 73 73 71 72 71 71 72 71 71 71 71 70 69 69 68 66 65 66 64 64 63 62 63 62 61 61 61 60 59 59 58 57 56 56
79 79 79 79 79 79 79 80 79 79 78 79 79 80 80 80 79 79 80 79 79 79 78 77 77 76 74 75 74 73 73 72 71 71 71 71 71 71 71 71 69 68 69 68 65 65 65 65 64 62 61 62 61 61 60 60 60 58 57 57 57 58 55
79 79 79 79 79 79 79 79 79 78 79 79 79 79 80 80 80 79 78 79 79 77 77 77 72 65 66 74 73 74 72 72 72 71 70 70 70 70 71 69 69 69 66 65 62 59 58 59 63 64 62 61 61 61 60 58 57 58 58 57 56 56 55
79 78 78 79 78 79 79 79 78 78 78 78 78 78 78 79 79 79 79 78 77 77 77 78 62 56 57 61 72 72 72 71 71 71 70 69 68 69 67 68 67 68 65 63 62 55 54 54 53 56 59 61 63 63 59 57 57 58 57 57 58 57 55
78 78 78 78 79 79 79 78 77 78 77 77 77 78 77 78 78 78 78 79 77 77 76 67 54 54 55 55 62 72 71 71 70 70 70 69 68 67 67 67 67 65 64 63 60 57 54 49 47 46 46 46 46 46 51 59 59 58 57 57 57 57 56
78 78 78 79 79 79 78 78 77 77 77 77 77 76 77 77 77 78 77 77 77 77 77 58 51 53 53 53 56 65 72 71 69 69 69 69 70 68 66 65 66 64 66 62 62 60 57 54 50 47 48 48 47 46 43 44 49 58 58 58 57 57 57
78 78 78 78 78 78 78 77 77 77 76 76 75 76 76 76 77 77 77 77 76 76 77 56 51 52 52 52 52 60 72 71 69 69 69 69 69 68 67 65 65 63 63 62 62 61 59 57 55 55 55 55 55 50 45 45 46 45 53 58 57 57 58
75 77 79 79 78 78 78 77 76 76 76 76 75 75 75 75 75 76 76 76 76 75 76 51 50 50 51 51 51 58 72 70 69 69 69 69 68 67 66 66 65 63 63 61 62 61 60 58 57 57 56 57 57 56 55 54 55 57 58 60 60 57 58
72 73 77 79 78 77 77 76 75 75 75 75 75 75 75 75 75 75 76 75 75 74 69 47 49 50 50 51 50 68 71 69 68 68 69 69 69 68 67 66 65 63 63 62 58 53 56 59 58 57 56 56 56 56 57 58 51 49 54 56 56 55 52
71 74 77 78 77 77 76 75 76 75 74 74 74 74 74 74 75 75 75 75 73 75 63 49 48 50 50 50 54 70 70 69 68 68 68 68 69 68 67 67 65 64 63 62 54 48 50 55 58 57 57 56 55 55 57 52 43 42 43 42 42 42 41
72 73 76 77 77 76 76 76 76 74 73 73 73 74 74 74 74 74 74 74 73 73 61 51 46 48 49 49 59 69 69 68 67 67 67 67 68 67 68 64 66 65 63 62 48 47 47 56 58 57 56 56 55 55 55 55 53 48 42 42 41 40 41
75 75 77 77 77 76 75 75 75 74 74 74 73 74 73 73 73 73 73 73 64 70 62 53 45 47 48 48 60 69 69 69 67 66 66 66 66 66 66 63 62 62 63 56 46 47 47 55 59 58 57 56 56 55 55 56 54 51 50 51 49 50 49
74 76 78 77 77 76 76 75 74 73 73 74 73 74 72 72 72 72 72 72 69 69 62 57 49 46 48 48 54 69 68 67 66 65 66 66 65 65 65 64 59 51 51 46 46 46 46 51 59 58 58 57 56 55 57 56 55 54 53 53 52 52 52
75 76 78 77 77 76 75 74 74 73 72 73 73 72 71 71 71 70 71 71 70 68 63 58 51 45 47 48 51 58 67 67 67 67 66 66 66 64 64 64 63 51 44 45 46 46 46 49 51 58 57 56 55 54 53 55 53 56 56 55 53 53 53
75 75 78 77 76 75 75 75 73 72 72 72 71 70 70 69 69 69 69 69 69 69 61 56 54 45 46 47 49 53 64 67 67 67 66 66 66 65 65 64 62 49 44 45 46 46 47 47 45 56 55 48 47 46 55 58 57 57 56 54 54 53 53
74 77 76 76 75 74 73 73 72 72 71 71 69 69 69 68 68 67 66 67 67 68 62 57 50 49 45 46 48 50 53 60 54 66 66 65 65 65 64 64 57 46 44 44 45 46 47 45 47 50 41 43 46 45 49 58 56 56 55 55 53 53 53
76 76 76 75 74 72 71 72 71 71 71 70 69 68 68 67 66 65 65 64 65 66 61 59 49 48 48 45 46 49 48 51 51 64 66 66 66 64 64 58 51 44 44 44 44 45 47 46 51 41 41 43 42 45 56 57 55 55 54 53 53 53 54

ECMWFFLT1_sfc_temp_150.txt.gz
Temp
70 69 69 69 69 69 68 68 70 70 72 72 72 71 72 72 72 70 70 69 68 67 67 66 66 65 65 66 66 66 66 65 64 63 62 63 62 62 64 62 61 60 61 59 58 61 54 53 56 58 59 61 60 61 63 63 63 61 59 59 61 61 59
71 70 69 69 69 69 68 67 69 71 71 72 72 72 72 72 72 71 70 70 69 68 68 67 66 66 65 65 65 65 65 65 64 64 63 63 64 63 62 61 61 60 59 59 59 58 54 55 54 56 57 58 58 58 60 62 64 63 63 61 62 63 61
70 68 69 68 68 67 68 67 69 70 71 71 71 72 72 72 72 72 71 70 69 69 68 67 66 66 65 65 65 65 66 65 65 64 64 64 65 64 64 64 62 60 59 59 58 58 56 56 55 56 57 58 56 60 60 60 62 64 64 62 61 63 62
69 68 67 67 67 66 68 67 68 69 70 71 71 71 72 72 72 72 71 71 70 69 68 67 66 66 65 65 65 66 66 65 65 64 63 63 64 64 63 63 63 63 62 60 59 59 59 55 56 56 57 59 60 59 59 62 63 64 64 63 61 62 62
70 69 68 68 68 67 67 67 67 69 70 70 71 71 71 72 72 72 72 71 70 69 68 68 67 66 66 65 65 65 65 66 66 64 64 63 63 63 63 63 64 64 63 63 62 61 60 58 59 57 56 57 59 60 62 56 61 62 63 64 64 63 63
70 71 70 69 69 68 68 68 67 68 69 69 70 70 71 71 72 71 71 71 70 69 69 68 68 67 66 65 65 65 65 65 65 65 64 64 64 63 64 64 64 63 64 64 63 61 61 61 59 56 57 58 57 57 62 59 58 61 64 64 65 63 63
71 71 71 70 70 70 69 69 69 69 69 70 70 71 72 72 72 73 72 71 71 70 69 69 68 67 66 65 65 64 64 65 65 65 65 65 64 65 65 64 63 63 64 64 63 62 61 60 57 58 58 56 57 58 57 56 59 59 58 62 64 64 63
72 71 71 71 71 71 70 70 70 70 70 70 71 72 72 72 72 72 72 71 71 70 69 69 69 67 67 66 65 65 65 65 65 65 64 64 64 64 64 64 64 64 64 63 63 64 64 63 62 60 58 57 54 53 54 57 55 59 62 59 64 63 63
72 72 71 71 72 72 71 71 70 70 71 71 72 72 72 72 72 72 72 71 71 70 69 69 68 67 67 66 65 64 64 65 64 64 64 64 64 64 64 64 63 64 64 64 64 64 64 64 63 61 60 59 56 52 51 52 53 56 60 59 60 62 63
69 70 71 71 72 72 72 72 71 71 71 71 71 72 71 72 72 71 71 71 71 70 69 69 69 68 67 66 66 65 64 64 64 64 64 64 64 64 64 64 64 64 64 64 64 64 64 63 63 63 63 62 59 56 50 49 51 53 58 61 59 59 64
69 70 71 71 72 72 72 72 72 71 71 72 72 72 71 71 71 71 71 71 71 70 69 69 69 68 67 66 66 66 66 65 64 64 64 64 64 64 64 64 64 64 65 64 64 64 63 63 62 62 62 62 61 60 56 53 53 54 54 56 61 58 59
69 70 69 71 71 72 71 71 71 72 71 71 71 71 71 71 71 71 71 71 70 70 69 69 68 68 67 66 66 66 66 65 64 64 64 64 65 64 63 63 63 64 64 64 64 64 64 63 62 62 62 61 60 61 59 54 53 52 58 58 58 61 60
69 69 69 69 69 71 71 71 71 71 71 72 72 72 71 71 71 71 71 70 70 70 69 69 68 68 67 66 66 65 65 65 64 64 64 64 65 65 64 63 63 64 64 63 63 63 64 63 63 62 62 61 60 60 58 55 55 57 54 57 57 59 61
68 68 68 68 69 70 71 71 72 72 72 71 72 72 71 72 72 72 72 71 70 70 69 68 68 68 67 66 66 66 65 65 64 64 64 64 65 65 64 64 64 64 65 63 63 63 63 63 63 62 62 61 61 59 59 57 56 56 53 52 53 55 57
68 68 67 67 68 69 70 71 72 72 71 72 72 72 72 72 72 72 72 72 71 70 70 69 68 68 67 66 66 66 66 65 64 64 64 64 64 65 65 64 65 65 65 64 64 64 64 63 62 62 61 61 61 59 59 60 57 56 56 53 55 54 54
68 67 67 67 67 68 69 71 72 72 72 72 72 72 72 72 72 72 72 72 71 71 70 69 69 68 67 67 66 65 66 65 64 64 64 64 64 65 65 64 65 65 65 64 64 65 65 64 64 63 63 61 61 60 59 61 58 55 56 53 50 53 53
67 67 67 68 68 69 71 71 72 72 73 73 72 72 73 73 72 72 72 72 71 71 70 70 69 68 68 67 66 66 65 65 65 64 64 64 64 65 65 64 64 65 65 64 64 64 64 64 63 63 63 62 61 61 60 58 60 59 55 57 52 55 54
67 67 67 69 69 70 71 72 73 73 73 72 73 72 72 73 72 72 71 72 71 71 70 70 69 68 68 68 67 67 66 65 65 65 65 65 66 65 65 65 65 65 64 63 64 63 63 62 63 62 62 62 61 61 61 59 58 58 55 56 54 52 52
67 67 68 69 70 71 72 73 73 73 74 73 73 73 72 72 73 72 72 72 72 72 71 70 69 69 68 68 67 67 67 66 65 65 65 65 65 65 65 65 65 65 64 63 64 64 63 62 62 61 61 61 60 59 59 57 57 56 56 55 54 52 51
68 68 69 70 71 72 73 73 73 73 73 73 73 72 73 72 72 73 73 73 72 72 71 70 69 69 69 68 68 67 66 66 66 66 66 65 66 65 65 65 65 65 64 64 64 63 63 62 62 61 61 60 59 58 58 57 56 55 55 54 51 53 53
69 70 70 71 72 73 74 74 73 74 73 73 73 73 72 72 72 72 73 72 72 72 71 70 70 69 69 68 68 67 67 66 66 66 66 66 66 65 65 65 65 65 65 65 64 64 63 62 61 60 59 59 58 58 57 56 55 55 54 53 53 50 49
70 71 71 72 72 73 74 74 74 73 73 73 73 73 73 73 72 72 72 72 72 72 71 70 70 70 69 68 68 67 68 67 67 66 65 65 65 65 65 65 65 65 65 66 63 63 63 63 61 60 58 57 57 57 57 56 55 54 52 52 51 50 49
71 71 72 72 72 73 73 74 74 73 73 73 73 73 73 73 73 72 71 72 72 71 71 71 67 62 62 68 68 68 68 67 67 66 65 65 64 65 65 65 65 66 64 63 60 57 56 57 61 63 61 57 58 57 57 55 54 53 53 52 52 50 49
71 71 72 72 73 73 73 73 73 73 73 72 73 72 72 72 72 72 72 71 71 71 71 72 61 54 54 58 67 68 67 66 66 66 66 65 64 64 64 65 64 65 64 63 61 55 54 53 54 55 57 59 61 60 57 55 55 54 54 54 53 50 51
71 71 72 72 72 73 73 73 73 73 73 72 72 72 71 71 72 72 71 71 71 71 71 65 55 52 53 53 59 68 68 67 66 66 66 66 65 65 64 64 63 63 63 63 63 61 56 53 51 51 51 52 53 55 56 59 57 53 53 53 51 52 52
71 71 71 72 72 72 72 72 72 72 72 73 73 71 71 72 71 72 71 71 70 71 71 61 52 52 51 52 53 62 68 67 66 66 66 66 65 65 64 63 63 62 63 62 63 61 59 57 53 51 52 52 52 51 48 50 54 61 57 56 55 53 52
71 71 72 72 72 72 72 72 72 73 73 72 72 72 72 71 71 71 71 71 71 72 71 61 51 51 51 50 51 57 70 68 67 66 66 66 66 65 64 64 63 62 60 60 60 59 58 57 55 54 53 53 54 56 51 48 48 51 55 58 56 56 54
65 69 71 72 71 71 71 71 72 72 72 72 72 71 71 71 71 71 71 71 71 71 71 58 51 50 50 49 50 54 70 69 68 67 66 66 66 65 65 64 64 63 60 59 58 58 57 55 54 54 54 54 54 54 53 53 53 54 54 55 56 57 55
61 61 61 65 68 70 71 71 71 72 71 72 72 72 72 72 71 70 71 71 71 70 72 56 50 49 49 49 49 60 69 69 68 67 66 65 65 65 65 64 63 62 60 59 55 50 54 56 55 54 53 53 52 50 51 53 49 51 55 56 55 55 54
63 63 63 62 62 64 67 70 71 72 71 71 71 71 71 71 72 71 70 70 70 70 71 59 49 49 48 47 50 64 68 68 68 67 66 65 65 65 64 65 64 63 60 59 52 47 48 53 55 55 54 53 52 50 51 47 43 44 46 47 47 48 47
63 63 63 64 64 64 63 66 70 71 71 70 70 71 71 71 72 71 71 70 70 70 71 62 48 48 48 47 54 65 67 67 66 66 66 65 65 64 64 62 64 64 61 60 48 46 46 54 56 55 54 52 50 49 49 46 46 43 43 42 42 42 42
64 64 63 64 65 65 64 64 65 69 71 71 71 71 70 70 70 71 71 71 65 69 71 62 46 48 47 47 54 66 67 67 66 65 65 64 64 64 64 61 60 61 62 58 46 46 45 54 58 56 55 54 53 51 51 46 47 45 45 46 46 46 46
63 64 64 65 65 65 65 65 65 64 68 71 71 71 69 69 69 69 70 70 70 70 71 66 51 47 47 47 50 66 68 67 66 64 63 63 63 63 63 62 58 51 51 49 46 45 45 49 59 58 56 54 55 54 51 48 49 50 48 49 48 47 49
63 63 65 65 65 64 64 64 64 64 64 68 70 69 69 69 69 69 69 69 70 70 70 68 54 46 47 47 48 57 68 68 67 65 64 62 63 63 62 62 60 52 48 48 46 44 45 46 51 59 56 56 56 56 50 50 50 52 50 49 48 47 48
65 65 65 65 64 63 64 65 65 64 64 64 67 68 68 68 68 68 68 68 68 69 67 62 59 46 46 46 47 51 66 68 66 65 64 63 63 63 63 63 62 55 47 47 45 45 45 46 47 57 57 51 49 45 51 53 51 50 49 48 46 46 46
64 66 66 66 65 64 64 65 65 64 64 64 64 66 67 67 66 66 66 66 66 66 66 61 53 51 45 46 46 48 55 61 53 65 65 63 63 64 65 64 62 52 45 46 45 45 46 46 47 53 49 46 46 44 48 51 50 49 48 48 47 48 47
65 66 66 67 66 66 66 65 64 64 63 64 63 63 66 66 66 65 65 65 63 62 62 61 51 49 49 44 45 47 49 53 51 63 64 65 65 64 64 63 58 47 45 46 45 45 46 46 50 48 46 45 44 44 52 49 48 49 48 48 47 49 47